RADIO ROSTO (RS-15)

Last updated on Wed Oct 15 2025 00:03:07 GMT+0000 (Coordinated Universal Time)

1 23439U 94085A 25287.26973113 -.00000035 00000+0 20705-3 0 9998 2 23439 64.8206 340.9288 0147840 49.9328 311.4454 11.27581526268176
UTC large
Height (km)
Speed (km/s)
/
Latitude / Longitude
Inclination (degrees)
Orbital Period (minutes)
Azimuth
Elevation
Range (km)
Doppler Factor

Next 0 passes for location: London (51.5072 / 0.1276)

Sorry there are no passes over London.